EJA157 KCPS-KMEM

Flight info

Callsign EJA157
Flight time 0h 47m
Altitude 36000
Route LINDY9 MYERZ WHOLL BRBBQ3
Aircraft C25C/M-L/C

Departure

Time 2026-05-05 22:56
Airport St Louis Downtown Airport (KCPS)

Arrival

Time 2026-05-05 23:43
Airport Memphis International Airport (KMEM)
Time Latitude Longitude Altitude Speed Heading
2026-05-05 22:44 38.57691 -90.16024 414 ft 0 kts 279°
2026-05-05 22:50 38.57692 -90.16025 414 ft 1 kts 283°
2026-05-05 22:51 38.57714 -90.16083 418 ft 7 kts 252°
2026-05-05 22:51 38.57662 -90.16144 414 ft 14 kts 227°
2026-05-05 22:51 38.57607 -90.16219 415 ft 10 kts 225°
2026-05-05 22:51 38.57560 -90.16282 412 ft 12 kts 227°
2026-05-05 22:52 38.57505 -90.16359 410 ft 12 kts 227°
2026-05-05 22:52 38.57452 -90.16364 413 ft 7 kts 123°
2026-05-05 22:52 38.57424 -90.16308 412 ft 11 kts 123°
2026-05-05 22:52 38.57382 -90.16224 415 ft 12 kts 122°
2026-05-05 22:53 38.57336 -90.16130 412 ft 14 kts 122°
2026-05-05 22:53 38.57268 -90.15989 415 ft 23 kts 121°
2026-05-05 22:53 38.57182 -90.15815 415 ft 20 kts 123°
2026-05-05 22:53 38.57114 -90.15681 410 ft 16 kts 122°
2026-05-05 22:54 38.57062 -90.15576 413 ft 12 kts 122°
2026-05-05 22:54 38.57025 -90.15501 413 ft 12 kts 122°
2026-05-05 22:54 38.56984 -90.15418 413 ft 9 kts 122°
2026-05-05 22:54 38.56948 -90.15382 413 ft 4 kts 176°
2026-05-05 22:55 38.56921 -90.15401 413 ft 4 kts 218°
2026-05-05 22:55 38.56902 -90.15420 412 ft 5 kts 223°
2026-05-05 22:55 38.56914 -90.15524 408 ft 26 kts 302°
2026-05-05 22:55 38.57188 -90.16070 424 ft 122 kts 302°
2026-05-05 22:56 38.57723 -90.17125 1267 ft 157 kts 300°
2026-05-05 22:56 38.58391 -90.18431 2269 ft 201 kts 298°
2026-05-05 22:56 38.58822 -90.20257 3221 ft 230 kts 270°
2026-05-05 22:56 38.58731 -90.22325 4158 ft 232 kts 247°
2026-05-05 22:57 38.57785 -90.23965 5055 ft 231 kts 227°
2026-05-05 22:57 38.56497 -90.25155 5909 ft 234 kts 212°
2026-05-05 22:57 38.55075 -90.26176 6747 ft 238 kts 216°
2026-05-05 22:57 38.53645 -90.27351 7579 ft 250 kts 217°
2026-05-05 22:58 38.52162 -90.28607 8434 ft 259 kts 218°
2026-05-05 22:58 38.50626 -90.29894 9311 ft 268 kts 218°
2026-05-05 22:58 38.49064 -90.31195 10151 ft 275 kts 218°
2026-05-05 22:58 38.47436 -90.32540 10970 ft 281 kts 218°
2026-05-05 22:59 38.45788 -90.33917 11804 ft 285 kts 218°
2026-05-05 22:59 38.44103 -90.35313 12662 ft 288 kts 218°
2026-05-05 22:59 38.42419 -90.36719 13539 ft 301 kts 218°
2026-05-05 22:59 38.40591 -90.38243 14369 ft 325 kts 218°
2026-05-05 23:00 38.36571 -90.41573 16063 ft 360 kts 218°
2026-05-05 23:00 38.34460 -90.43319 16930 ft 372 kts 218°
2026-05-05 23:00 38.32249 -90.45149 17843 ft 382 kts 218°
2026-05-05 23:01 38.29983 -90.47025 18689 ft 390 kts 218°
2026-05-05 23:01 38.27749 -90.48861 19497 ft 372 kts 218°
2026-05-05 23:01 38.25647 -90.50587 20312 ft 354 kts 218°
2026-05-05 23:01 38.23623 -90.52268 21154 ft 338 kts 219°
2026-05-05 23:02 38.21681 -90.53868 22016 ft 324 kts 219°
2026-05-05 23:02 38.19761 -90.55227 22881 ft 319 kts 207°
2026-05-05 23:02 38.17592 -90.55828 23727 ft 316 kts 193°
2026-05-05 23:02 38.15430 -90.56076 24493 ft 305 kts 192°
2026-05-05 23:03 38.13344 -90.56286 25270 ft 299 kts 193°
2026-05-05 23:03 38.11260 -90.56520 25974 ft 309 kts 193°
2026-05-05 23:03 38.09084 -90.56768 26714 ft 319 kts 193°
2026-05-05 23:03 38.06834 -90.57012 27482 ft 326 kts 193°
2026-05-05 23:04 38.04540 -90.57259 28274 ft 332 kts 193°
2026-05-05 23:04 38.02230 -90.57510 28871 ft 344 kts 193°
2026-05-05 23:04 37.99784 -90.57789 29205 ft 362 kts 192°
2026-05-05 23:04 37.97204 -90.58072 29558 ft 377 kts 192°
2026-05-05 23:05 37.94569 -90.58351 29914 ft 391 kts 192°
2026-05-05 23:05 37.91806 -90.58652 30230 ft 402 kts 192°
2026-05-05 23:05 37.88972 -90.58958 30533 ft 412 kts 192°
2026-05-05 23:05 37.86091 -90.59273 30911 ft 418 kts 192°
2026-05-05 23:06 37.83171 -90.59589 31287 ft 423 kts 192°
2026-05-05 23:06 37.80257 -90.59903 31668 ft 427 kts 192°
2026-05-05 23:06 37.77274 -90.60229 32057 ft 430 kts 192°
2026-05-05 23:06 37.74273 -90.60553 32448 ft 432 kts 192°
2026-05-05 23:07 37.71268 -90.60881 32842 ft 433 kts 192°
2026-05-05 23:07 37.68284 -90.61200 33234 ft 434 kts 193°
2026-05-05 23:07 37.65265 -90.61529 33606 ft 435 kts 193°
2026-05-05 23:07 37.62235 -90.61859 33875 ft 438 kts 193°
2026-05-05 23:08 37.59183 -90.62189 34103 ft 440 kts 193°
2026-05-05 23:08 37.56149 -90.62515 34327 ft 443 kts 194°
2026-05-05 23:08 37.53065 -90.62847 34523 ft 445 kts 194°
2026-05-05 23:08 37.49948 -90.63186 34689 ft 449 kts 194°
2026-05-05 23:09 37.46815 -90.63524 34842 ft 452 kts 194°
2026-05-05 23:09 37.43709 -90.63856 35003 ft 454 kts 194°
2026-05-05 23:09 37.40542 -90.64197 35164 ft 456 kts 195°
2026-05-05 23:09 37.37362 -90.64537 35331 ft 458 kts 195°
2026-05-05 23:10 37.34206 -90.64878 35485 ft 460 kts 195°
2026-05-05 23:10 37.31003 -90.65221 35656 ft 461 kts 195°
2026-05-05 23:10 37.27792 -90.65564 35790 ft 464 kts 195°
2026-05-05 23:10 37.24589 -90.65938 35825 ft 464 kts 198°
2026-05-05 23:11 37.18442 -90.67731 35846 ft 445 kts 210°
2026-05-05 23:11 37.15582 -90.69126 35844 ft 434 kts 216°
2026-05-05 23:11 37.12886 -90.70778 35853 ft 429 kts 218°
2026-05-05 23:12 37.07563 -90.74110 35844 ft 427 kts 218°
2026-05-05 23:12 37.02269 -90.77416 35842 ft 426 kts 218°
2026-05-05 23:13 36.96959 -90.80733 35840 ft 425 kts 218°
2026-05-05 23:13 36.91691 -90.84017 35832 ft 425 kts 218°
2026-05-05 23:14 36.86373 -90.87327 35829 ft 426 kts 218°
2026-05-05 23:14 36.81054 -90.90631 35823 ft 426 kts 218°
2026-05-05 23:15 36.75757 -90.93915 35830 ft 426 kts 219°
2026-05-05 23:15 36.70441 -90.97208 35835 ft 426 kts 219°
2026-05-05 23:16 36.65145 -91.00486 35821 ft 426 kts 219°
2026-05-05 23:16 36.59801 -91.03783 35812 ft 427 kts 219°
2026-05-05 23:17 36.54507 -91.07047 35810 ft 426 kts 219°
2026-05-05 23:17 36.49200 -91.10313 35780 ft 426 kts 219°
2026-05-05 23:18 36.46573 -91.11913 35330 ft 413 kts 219°
2026-05-05 23:18 36.44027 -91.13477 34847 ft 405 kts 219°
2026-05-05 23:18 36.41517 -91.15031 34358 ft 401 kts 219°
2026-05-05 23:18 36.39021 -91.16569 33897 ft 398 kts 219°
2026-05-05 23:19 36.36566 -91.18069 33364 ft 396 kts 218°
2026-05-05 23:19 36.34082 -91.19592 32822 ft 403 kts 218°
2026-05-05 23:19 36.31538 -91.21166 32304 ft 413 kts 217°
2026-05-05 23:19 36.28885 -91.22673 31791 ft 428 kts 212°
2026-05-05 23:20 36.26011 -91.23880 31283 ft 441 kts 205°
2026-05-05 23:20 36.23003 -91.24722 30798 ft 454 kts 199°
2026-05-05 23:20 36.19822 -91.25178 30325 ft 465 kts 192°
2026-05-05 23:20 36.16531 -91.25200 29840 ft 475 kts 185°
2026-05-05 23:21 36.13218 -91.24761 29282 ft 482 kts 178°
2026-05-05 23:21 36.09994 -91.23868 28735 ft 479 kts 171°
2026-05-05 23:21 36.06834 -91.22517 28075 ft 481 kts 163°
2026-05-05 23:21 36.03797 -91.20753 27417 ft 481 kts 159°
2026-05-05 23:22 36.00795 -91.18931 26774 ft 477 kts 159°
2026-05-05 23:22 35.97810 -91.17139 26163 ft 474 kts 159°
2026-05-05 23:22 35.94875 -91.15377 25554 ft 471 kts 159°
2026-05-05 23:22 35.91942 -91.13601 24954 ft 468 kts 159°
2026-05-05 23:23 35.89020 -91.11838 24376 ft 460 kts 159°
2026-05-05 23:23 35.87131 -91.10695 23988 ft 450 kts 159°
2026-05-05 23:23 35.83452 -91.08488 23215 ft 435 kts 159°
2026-05-05 23:23 35.81624 -91.07391 22758 ft 429 kts 159°
2026-05-05 23:24 35.78125 -91.05296 21888 ft 420 kts 159°
2026-05-05 23:24 35.76337 -91.04233 21425 ft 422 kts 159°
2026-05-05 23:24 35.73710 -91.02669 20696 ft 425 kts 159°
2026-05-05 23:24 35.71053 -91.01083 19991 ft 426 kts 159°
2026-05-05 23:25 35.67480 -90.98944 19067 ft 420 kts 159°
2026-05-05 23:25 35.65749 -90.97914 18618 ft 413 kts 159°
2026-05-05 23:25 35.63215 -90.96402 17934 ft 405 kts 159°
2026-05-05 23:25 35.60694 -90.94909 17173 ft 398 kts 159°
2026-05-05 23:26 35.58207 -90.93427 16429 ft 391 kts 159°
2026-05-05 23:26 35.55781 -90.91987 15775 ft 382 kts 159°
2026-05-05 23:26 35.53414 -90.90577 15184 ft 373 kts 160°
2026-05-05 23:26 35.51215 -90.88910 14586 ft 376 kts 142°
2026-05-05 23:27 35.49560 -90.86479 14009 ft 373 kts 124°
2026-05-05 23:27 35.48524 -90.83634 13416 ft 353 kts 114°
2026-05-05 23:27 35.47600 -90.80918 12783 ft 336 kts 115°
2026-05-05 23:27 35.46742 -90.78298 12122 ft 324 kts 114°
2026-05-05 23:28 35.45903 -90.75785 11548 ft 312 kts 115°
2026-05-05 23:28 35.45097 -90.73382 11054 ft 301 kts 115°
2026-05-05 23:28 35.44294 -90.71010 10623 ft 299 kts 115°
2026-05-05 23:28 35.43507 -90.68655 10349 ft 297 kts 115°
2026-05-05 23:29 35.42731 -90.66347 10104 ft 295 kts 115°
2026-05-05 23:29 35.41966 -90.64023 10014 ft 292 kts 112°
2026-05-05 23:29 35.41397 -90.61634 9976 ft 291 kts 110°
2026-05-05 23:29 35.40768 -90.59282 9974 ft 289 kts 110°
2026-05-05 23:30 35.40196 -90.56941 9882 ft 291 kts 109°
2026-05-05 23:30 35.39623 -90.54525 9641 ft 296 kts 108°
2026-05-05 23:30 35.39064 -90.52125 9392 ft 295 kts 109°
2026-05-05 23:30 35.38501 -90.49672 9128 ft 294 kts 109°
2026-05-05 23:31 35.37955 -90.47285 8879 ft 294 kts 108°
2026-05-05 23:31 35.37413 -90.44878 8623 ft 292 kts 109°
2026-05-05 23:31 35.36881 -90.42481 8295 ft 290 kts 108°
2026-05-05 23:31 35.36358 -90.40103 7974 ft 286 kts 109°
2026-05-05 23:32 35.35864 -90.37788 7657 ft 283 kts 109°
2026-05-05 23:32 35.35371 -90.35459 7340 ft 281 kts 108°
2026-05-05 23:32 35.34892 -90.33151 7024 ft 279 kts 109°
2026-05-05 23:32 35.34422 -90.30849 6717 ft 278 kts 108°
2026-05-05 23:33 35.33952 -90.28556 6407 ft 276 kts 108°
2026-05-05 23:33 35.33492 -90.26267 6090 ft 275 kts 108°
2026-05-05 23:33 35.33042 -90.24022 5772 ft 272 kts 108°
2026-05-05 23:33 35.32596 -90.21778 5449 ft 270 kts 108°
2026-05-05 23:34 35.32170 -90.19559 5135 ft 263 kts 108°
2026-05-05 23:34 35.31763 -90.17422 5023 ft 252 kts 108°
2026-05-05 23:34 35.31371 -90.15336 4985 ft 258 kts 108°
2026-05-05 23:34 35.30959 -90.13163 4980 ft 262 kts 108°
2026-05-05 23:35 35.30547 -90.10970 4983 ft 265 kts 108°
2026-05-05 23:35 35.30130 -90.08788 4992 ft 268 kts 108°
2026-05-05 23:35 35.29700 -90.06545 4995 ft 269 kts 108°
2026-05-05 23:35 35.29274 -90.04315 4998 ft 269 kts 108°
2026-05-05 23:36 35.28844 -90.02090 5000 ft 268 kts 108°
2026-05-05 23:36 35.28410 -89.99953 4988 ft 245 kts 115°
2026-05-05 23:36 35.27440 -89.98527 4977 ft 201 kts 160°
2026-05-05 23:36 35.26187 -89.98121 4905 ft 182 kts 176°
2026-05-05 23:37 35.24938 -89.97869 4574 ft 180 kts 178°
2026-05-05 23:37 35.23724 -89.97962 4195 ft 173 kts 197°
2026-05-05 23:37 35.22558 -89.98282 3773 ft 167 kts 195°
2026-05-05 23:37 35.21440 -89.98556 3323 ft 161 kts 193°
2026-05-05 23:38 35.20382 -89.98767 3052 ft 147 kts 195°
2026-05-05 23:38 35.19435 -89.98971 2992 ft 136 kts 186°
2026-05-05 23:38 35.18470 -89.99002 2871 ft 138 kts 187°
2026-05-05 23:38 35.17511 -89.99003 2695 ft 137 kts 185°
2026-05-05 23:39 35.16573 -89.98985 2519 ft 135 kts 184°
2026-05-05 23:39 35.15673 -89.98966 2349 ft 123 kts 184°
2026-05-05 23:39 35.14834 -89.98944 2182 ft 119 kts 185°
2026-05-05 23:39 35.13998 -89.98926 2029 ft 120 kts 185°
2026-05-05 23:40 35.13173 -89.98914 1878 ft 120 kts 182°
2026-05-05 23:40 35.12345 -89.98898 1727 ft 118 kts 182°
2026-05-05 23:40 35.11531 -89.98880 1581 ft 110 kts 181°
2026-05-05 23:40 35.10816 -89.98862 1429 ft 100 kts 184°
2026-05-05 23:41 35.10060 -89.98847 1303 ft 118 kts 184°
2026-05-05 23:41 35.09200 -89.98832 1149 ft 128 kts 181°
2026-05-05 23:41 35.08284 -89.98812 980 ft 134 kts 184°
2026-05-05 23:41 35.07367 -89.98796 800 ft 127 kts 182°
2026-05-05 23:42 35.06523 -89.98775 635 ft 115 kts 181°
2026-05-05 23:42 35.05715 -89.98758 482 ft 118 kts 179°
2026-05-05 23:42 35.04914 -89.98744 347 ft 108 kts 179°
2026-05-05 23:42 35.04317 -89.98731 322 ft 59 kts 179°
2026-05-05 23:43 35.04182 -89.98677 322 ft 5 kts 79°
2026-05-05 23:43 35.04184 -89.98661 323 ft 0 kts 86°
2026-05-05 23:44 35.04187 -89.98631 323 ft 8 kts 83°
2026-05-05 23:44 35.04267 -89.98597 323 ft 19 kts 358°
2026-05-05 23:44 35.04413 -89.98601 324 ft 22 kts 359°
2026-05-05 23:45 35.04567 -89.98603 324 ft 22 kts 359°
2026-05-05 23:45 35.04725 -89.98606 325 ft 23 kts 359°
2026-05-05 23:45 35.04887 -89.98609 325 ft 23 kts 359°
2026-05-05 23:45 35.05045 -89.98561 325 ft 24 kts 26°
2026-05-05 23:46 35.05206 -89.98512 324 ft 24 kts 359°
2026-05-05 23:46 35.05373 -89.98511 324 ft 25 kts
2026-05-05 23:46 35.05537 -89.98509 322 ft 20 kts
2026-05-05 23:46 35.05554 -89.98386 324 ft 17 kts 135°
2026-05-05 23:47 35.05459 -89.98316 322 ft 15 kts 134°
2026-05-05 23:47 35.05439 -89.98255 324 ft 0 kts 90°